Location: Poughquag
(41.6090°N, 73.6820°W)
Time: 03:14:48
(UTC-04:00)

Vanguard 1 Rocket - Pass Details

Date: 07 June 2020
Orbit: 653 x 4224 km, 34.3° (Epoch: 06 July)

Event Time Altitude Azimuth Distance (km) Brightness Sun altitude
Rises 01:46:32 0° 262° (W) 8,277 12.1 -24.4°
Reaches altitude 10° 01:52:47 10° 260° (W) 6,959 11.6 -24.2°
Maximum altitude 02:13:31 65° 185° (S) 2,684 9.4 -23.0°
Drops below altitude 10° 02:24:12 10° 106° (ESE) 3,853 10.7 -22.3°
Sets 02:26:37 0° 103° (ESE) 4,520 11.1 -22.1°
